Regional Weather Roundup
Issued by NWS

Home | Current Version | Previous Version | Text Only | Print | Product List | Glossary Off
Versions: 1 2 3 4 5 6 7 8 9 10 11 12 13 14 15 16 17 18 19 20 21 22 23 24 25 26 27 28 29 30 31 32 33 34 35 36 37 38 39 40 41 42 43 44 45 46 47 48 49 50

119
ASUS44 KJAN 200010
RWRMS

MISSISSIPPI HOURLY WEATHER ROUNDUP
NATIONAL WEATHER SERVICE JACKSON MS
700 PM CDT TUE AUG 19 2014

NOTE: "FAIR: INDICATES FEW OR NO CLOUDS BELOW 12,000 FEET WITH NO
SIGNIFICANT WEATHER AND/OR OBSTRUCTIONS TO VISIBILITY.

MSZ001>002-007>008-010>013-018>021-025>028-034>036-200100-
NORTHWEST MISSISSIPPI

CITY           SKY/WX    TMP DP  RH WIND       PRES   REMARKS
CLARKSDALE     FAIR      88  79  74 CALM      29.86S HX 102
CLEVELAND      FAIR      88  80  76 SW7       29.87S HX 104
GREENWOOD      PTCLDY    84  76  76 S6        29.88S HX  93
6HR MIN TEMP:  84; 6HR MAX TEMP:  94;

GREENVILLE     CLEAR    N/A N/A N/A MISG        N/A
GRENADA        FAIR      88  75  66 S5        29.88S HX  97
OLIVE BRANCH   PTCLDY    88  81  79 SW9       29.87R HX 105
OXFORD         FAIR      86  75  70 SW5       29.89S HX  95
TUNICA         CLEAR     88  77  70 S6        29.86R HX 100
$$

MSZ003>006-009-014>017-022>024-029>033-037>039-200100-
NORTHEAST MISSISSIPPI

CITY           SKY/WX    TMP DP  RH WIND       PRES   REMARKS
BELMONT        FAIR      85  74  68 S5        29.89S HX  93
COLUMBUS AFB   MOCLDY    89  74  61 SW6       29.88F HX  98
6HR MIN TEMP:  88; 6HR MAX TEMP:  93;

CORINTH        DRIZZLE   86  70  58 S5        29.86S HX  90
GOLDN TRIANGLE PTCLDY    88  70  55 S10       29.90S HX  92
STARKVILLE     FAIR      88  73  62 CALM      29.89S HX  96
TUPELO         CLEAR     90  69  50 SW3       29.87S HX  94
6HR MIN TEMP:  90; 6HR MAX TEMP:  93;

$$

MSZ040-058-200100-
CENTRAL MISSISSIPPI

CITY           SKY/WX    TMP DP  RH WIND       PRES   REMARKS
JACKSON INTL   PTCLDY    87  74  64 SW7       29.94R HX  95
6HR MIN TEMP:  87; 6HR MAX TEMP:  93;

JACKSON HAWKNS CLEAR     87  73  62 SW7       29.94R HX  94
6HR MIN TEMP:  87; 6HR MAX TEMP:  93;

MERIDIAN KEY   LGT RAIN  75  68  78 VRB3      29.94S
6HR MIN TEMP:  75; 6HR MAX TEMP:  93; 6HR PCP: TRACE;

MERIDIAN NAS   CLOUDY    79  73  82 SW6       29.94S THUNDER
6HR MIN TEMP:  75; 6HR MAX TEMP:  93; 6HR PCP:  0.09;

RAYMOND        FAIR      86  82  89 SW3       29.94R HX 105
VICKSBURG      PTCLDY    87  74  64 S6        29.93R HX  95
6HR MIN TEMP:  87; 6HR MAX TEMP:  92;

$$

MSZ059>079-200100-
SOUTH MISSISSIPPI

CITY           SKY/WX    TMP DP  RH WIND       PRES   REMARKS
BROOKHAVEN     FAIR      88  73  62 W6        29.97R HX  96
COLUMBIA       FAIR      86  77  74 MISG      29.93R HX  97
HATTIESBURG    PTCLDY    92  71  50 SW8       29.93S HX  98
6HR MIN TEMP:  90; 6HR MAX TEMP:  96;

MCCOMB         CLEAR     88  71  57 SW5       29.95R HX  94
6HR MIN TEMP:  88; 6HR MAX TEMP:  94;

NATCHEZ        MOCLDY    82  70  65 SW5       29.95R
6HR MIN TEMP:  82; 6HR MAX TEMP:  91;

PINE BELT      CLEAR     90  72  55 SW3       29.95S HX  96
6HR MIN TEMP:  90; 6HR MAX TEMP:  93;

$$

MSZ080>082-200100-
COASTAL MISSISSIPPI

CITY           SKY/WX    TMP DP  RH WIND       PRES   REMARKS
BAY ST LOUIS   PTCLDY   N/A N/A N/A CALM      29.94F
BILOXI         CLEAR     87  77  72 SW13      29.93F HX  99
6HR MIN TEMP:  87; 6HR MAX TEMP:  93; 6HR PCP: TRACE;

PASCAGOULA     CLEAR     85  76  74 VRB6      29.94F HX  94
6HR MIN TEMP:  85; 6HR MAX TEMP:  92;

GULFPORT       CLEAR     88  74  63 SW5       29.92F HX  96
6HR MIN TEMP:  88; 6HR MAX TEMP:  93;

$$



USA.gov is the U.S. government's official web portal to all federal, state and local government web resources and services.